DECAYED

STARLINK-1680, 46558 (Decayed)

Orbit data source: Space-Track

STARLINK-1680, 46558 was a payload satellite owned by SpaceX/Seattle (US) in LEO that was launched on Tue, 06 Oct 2020 UTC via an FALCON 9 launch vehicle from the Air Force Eastern Test Range (AFETR). Payload-class satellites include a variety of spacecraft equipped with specific instruments for various scientific and technological missions. These include communications satellites like Starlink; space stations such as the ISS; scientific satellites like the Hubble; Earth observation satellites from companies like Planet Labs, Umbra, and HawkEye 360; GPS; miniature CubeSats for education and research; and military/defense satellites.

Not visible in the next 10 days
Identifier
46558, 2020-070AC
Orbit
Decayed
Country
Flag of USUS
Related business
Manufacturer
SpaceX/Seattle
Mission
Decayed Commercial Communications
Bus & Motor
STARLINK, Unknown motor
Mass
260 kg wet, ~248 kg dry
Launch date (UTC)
2020-10-06 (6 years ago)
Launch vehicle
FALCON 9
Launch site
Air Force Eastern Test Range (AFETR)
Object type
Payload
Rocket body
Debris
Shape & HBR
Box + 1 Pan, 10.1 m
Radar Cross Section
13.562 m², Large (>1 m²)

Expand to show TLE details & history
Last TLE update: 2 months ago

TLE from 2 months ago
0 STARLINK-1680
1 46558U 20070AC  26127.03430032  .13002747  12543-4  34893-3 0  9993
2 46558  53.0160 171.5175 0004238 291.9176  68.1422 16.45526119309717
Epoch: 2026-05-07T00:49Z
TLE epoch observation values (Epoch: 2026-05-07T00:49:23.547Z)
Latitude
-0.00001°
Longitude
-65.71685°
Altitude
151.042 km
Speed
7.817 km/s
True Right ascension
11h 26m 04s
True Declination
0° 00' 00"
Sunlit
Object was in full shadow at epoch
Visualization orbit readout
Latitude
Unknown
Longitude
Unknown
Altitude
Unknown
Speed
Unknown
Apparent Right ascension
Unknown
Apparent Declination
Unknown
Sunlit
N/A
Visualization observer readout
Local Sidereal Time
19:50:17
Azimuth
Unknown
Elevation
Unknown
Doppler factor
Unknown
Orbital elements
Apogee altitude
154.204 km
Perigee altitude
148.669 km
Semi-major axis
6,529.574 km
Eccentricity
0.00042
Inclination
53.016°
RAAN
171.5175°
Arg. of periapsis
291.9176°
True anomaly
68.18728°
Mean anomaly
68.1422°
Eccentric anomaly
68.16474°
Mean motion
4.11354 °/min
Orbital period
87.52 mins
BSTAR
0.00034893
Loading maneuver chart data...
Computing Atmospheric mass density...

Documentation

Showing up to 5 results
|